User: anonymous   Login
Location: NJAA Observatory
(40.6819°N, 74.8979°W)
Time: 07:45:31
(UTC-05:00)
Language:

Cosmos 2082 - Orbit

View from above orbital plane
View from above orbital plane
View from above satellite
View from above satellite

Ground track
Ground track

The orbit data is extracted from the following two-line orbital elements,

1 20624U 90046A   15061.50592098 -.00000183  00000-0 -70893-4 0  9999
2 20624 071.0414 167.7785 0016953 231.5176 128.4426 14.14136024278766
Epoch (UTC): 02 March 2015 12:08:31
Eccentricity: 0.0016953
inclination: 71.0414°
perigee height: 833 km
apogee height: 857 km
right ascension of ascending node: 167.7785°
argument of perigee: 231.5176°
revolutions per day: 14.14136024
mean anomaly at epoch: 128.4426°
orbit number at epoch: 27876

The dashed part of the orbit path shows where the satellite is in the earth's shadow,  

DLR